Regional Weather Roundup
Issued by NWS

Home | Current Version | Previous Version | Graphics & Text | Print | Product List | Glossary On
Versions: 1 2 3 4 5 6 7 8 9 10 11 12 13 14 15 16 17 18 19 20 21 22 23 24 25 26 27 28 29 30 31 32 33 34 35 36 37 38 39 40 41 42 43 44 45 46 47 48 49 50
000
ASUS43 KMPX 291201
RWRMN
WEATHER ROUNDUP FOR MINNESOTA
NATIONAL WEATHER SERVICE TWIN CITIES/CHANHASSEN MN
700 AM CDT FRI AUG 29 2014


NOTE: "FAIR" INDICATES FEW OR NO CLOUDS BELOW 12,000 FEET WITH NO
SIGNIFICANT WEATHER AND/OR OBSTRUCTIONS TO VISIBILITY. N/A MEANS
CURRENT SKY AND/OR WEATHER CONDITIONS ARE NOT AVAILABLE.

MNZ060>063-068>070-291300-
   Twin Cities Metro

CITY           SKY/WX    TMP DP  RH WIND       PRES   REMARKS
TWIN CITIES    CLOUDY    69  68  96 SE8       29.81R
6HR MIN TEMP:  66; 6HR MAX TEMP:  69; 6HR PCP:  0.04;

ST PAUL        CLOUDY    68  67  96 SE10      29.81S
CRYSTAL        CLOUDY    70  67  90 SE9       29.79R FOG
BLAINE         CLOUDY    72  70  94 S8        29.81R
LAKEVILLE      CLOUDY    66  66 100 CALM      29.82S FOG
EDEN PRAIRIE   CLOUDY    70  68  93 SE5       29.80R FOG
6HR MIN TEMP:  67; 6HR MAX TEMP:  70; 6HR PCP:  0.24;

SOUTH ST PAUL  CLOUDY    68  66  94 SE6       29.81S
LAKE ELMO      CLOUDY    68  66  94 S6        29.83S
$$
MNZ001>005-007-008-013>017-022>024-027-028-291300-
   Northwest Minnesota

CITY           SKY/WX    TMP DP  RH WIND       PRES   REMARKS
BEMIDJI        DRIZZLE   63  62  99 CALM      29.81S
HALLOCK        CLOUDY    66  64  94 CALM      29.77F
ROSEAU         CLOUDY    64  59  82 CALM      29.80S
WARROAD        CLOUDY    63  59  88 CALM      29.81S
THIEF RVR FALL CLOUDY    63  63 100 CALM      29.79S
CROOKSTON      CLOUDY    64  63  94 CALM      29.78S
FOSSTON        CLOUDY    63  61  94 CALM      29.81R FOG
DETROIT LAKES  CLOUDY    64  63  94 S3        29.81S FOG
MOORHEAD       FOG       66  66 100 CALM      29.79S VSB 1/2
PARK RAPIDS    RAIN      64  63  96 SE3       29.81S FOG
MAHNOMEN       CLOUDY    64  63  98 CALM      29.79S
$$
MNZ006-009>011-018-025>026-291300-
   North Central Minnesota

CITY           SKY/WX    TMP DP  RH WIND       PRES   REMARKS
BAUDETTE       CLOUDY    63  61  93 VRB3      29.80F
FLAG ISLAND    CLOUDY    64  61  88 S5        29.79F
INTL FALLS     CLOUDY    60  59  96 CALM      29.84R
6HR MIN TEMP:  59; 6HR MAX TEMP:  62;

WASKISH        CLOUDY    64  63  94 CALM      29.82S
BIG FORK       HVY RAIN  61  59  94 CALM      29.84S
LONGVILLE      DRIZZLE   63  63 100 CALM      29.81S
GRAND RAPIDS   CLOUDY    61  57  88 SE5       29.82S
CRANE LAKE     CLOUDY    57  55  94 CALM      29.86F FOG
ORR            RAIN      59  57  94 CALM      29.82S
COOK           CLOUDY    59  59 100 CALM      29.85F
WALKER         RAIN      63  62  99 CALM      29.81S
$$
MNZ012-019>021-037-291300-
   Northeast Minnesota

CITY           SKY/WX    TMP DP  RH WIND       PRES   REMARKS
DULUTH         DRIZZLE   61  59  93 E9        29.85F FOG
6HR MIN TEMP:  60; 6HR MAX TEMP:  61; 6HR PCP: TRACE;

ELY            CLOUDY    61  57  88 CALM      29.87F
HIBBING        RAIN      61  58  90 E3        29.85S FOG
EVELETH        RAIN      59  59 100 CALM      29.86F
DULUTH HARBOR  CLOUDY    64  61  88 CALM      29.85S
TWO HARBORS    CLOUDY    59  54  82 NE6       29.85S
SILVER BAY     RAIN      57  57 100 NE5       29.86F
GRAND MARAIS     N/A     62  57  83 NE6       29.90S
G MARAIS ARPRT CLOUDY    57  54  88 CALM      29.93F
$$
MNZ029>031-032-039>041-046>048-054>057-064-291300-
   West Central Minnesota

CITY           SKY/WX    TMP DP  RH WIND       PRES   REMARKS
FERGUS FALLS   FOG       64  64 100 CALM      29.78F VSB 1/2
WHEATON        DRZL/FOG  63  63 100 CALM      29.79S VSB 1
MORRIS         RAIN      66  64  94 N3        29.77S VSB 1/4
ALEXANDRIA     CLOUDY    64  64 100 NE5       29.80F FOG
ELBOW LAKE     CLOUDY    64  64  99 CALM      29.77F FOG
WADENA         FOG       63  63 100 SE3       29.79F VSB 1/4
GLENWOOD       CLOUDY    64  64 100 N5        29.79F FOG
APPLETON       FOG       66  64  94 CALM      29.76S VSB 1/2
BENSON         FOG       64  64 100 CALM      29.76F VSB 3/4
ORTONVILLE     CLOUDY    64  63  94 CALM      29.77S FOG
MADISON        LGT RAIN  68  66  94 CALM      29.77S VSB 1/2
WILLMAR        TSTM      68  66  94 CALM      29.78S VSB 1
$$
MNZ033>034-036-042>043-049>051-058-059-291300-
   Central Minnesota

CITY           SKY/WX    TMP DP  RH WIND       PRES   REMARKS
ST CLOUD       CLOUDY    67  65  93 E8        29.78S FOG
6HR MIN TEMP:  67; 6HR MAX TEMP:  68; 6HR PCP:  1.07;

SAUK CENTRE    CLOUDY    64  64  98 NE5       29.78F FOG
PAYNESVILLE    CLOUDY    63  63 100 NE5       29.77F VSB 1/2
AITKIN         MIX PCPN  66  61  82 CALM      29.80S
PINE RIVER     CLOUDY    63  63 100 S3        29.84S FOG
BRAINERD       LGT RAIN  63  63 100 CALM      29.80F FOG
STAPLES        CLOUDY    63  63 100 SE3       29.80S FOG
LONG PRAIRIE   CLOUDY    63  63 100 CALM      29.79F
LITTLE FALLS   HVY RAIN  63  63 100 E3        29.79S
LITCHFIELD     CLOUDY    72  72 100 SE5       29.78F FOG
BUFFALO        CLOUDY    70  67  90 S8        29.80S
MAPLE LAKE     CLOUDY    70  69  98 S6        29.79S FOG
$$
MNZ037-044-045-052-053-291300-
   East Central Minnesota

CITY           SKY/WX    TMP DP  RH WIND       PRES   REMARKS
PRINCETON      CLOUDY    66  66 100 E3        29.79F
MORA           RAIN      59  59 100 SE3       29.83S
CAMBRIDGE      DRIZZLE   68  61  77 SE3       29.78F
RUSH CITY      CLOUDY    64  63  96 CALM      29.82S
MOOSE LAKE     CLOUDY    63  61  94 SE3       29.81F
HINCKLEY       RAIN      63  63 100 E5        29.82F
CLOQUET        CLOUDY    61  61 100 E5        29.84S FOG
MCGREGOR       CLOUDY    63  61  94 SE5       29.82S
$$
MNZ071>073-080-081-089-090-097-098-291300-
   Southwest Minnesota

CITY           SKY/WX    TMP DP  RH WIND       PRES   REMARKS
MONTEVIDEO     TSTM      64  64 100 CALM      29.78R
GRANITE FALLS  CLOUDY    67  67 100 CALM      29.77S THUNDER FOG
CANBY          FOG       66  65  99 N3        29.79R THUNDER VSB 1/2
MARSHALL       CLOUDY    66  64  94 CALM      29.75S
REDWOOD FALLS  CLOUDY    71  68  90 S13       29.76S
OLIVIA         CLOUDY    70  68  94 S7        29.75F THUNDER FOG
PIPESTONE      CLOUDY    70  68  94 S9        29.79R FOG
WINDOM         CLOUDY    68  64  88 S9        29.81S
WORTHINGTON    CLOUDY    66  64  94 S8        29.82S
JACKSON        MOCLDY    68  63  83 S8        29.82S
TRACY          CLOUDY    71  69  94 S7        29.77S
SLAYTON        CLOUDY    68  67  98 CALM      29.80S FOG
$$
MNZ065>067-074>077-082>085-091>093-291300-
   South Central Minnesota

CITY           SKY/WX    TMP DP  RH WIND       PRES   REMARKS
MANKATO        CLOUDY    70  63  78 S7        29.81R
NEW ULM        MOCLDY    68  68 100 S8        29.79S
ST JAMES       MOCLDY    70  66  88 S5        29.81S
FAIRMONT       CLOUDY    64  63  94 S6        29.81R
GLENCOE        CLOUDY    70  67  89 S6        29.79S
FARIBAULT      MOCLDY    70  64  83 SE5       29.83R
OWATONNA       MOCLDY    68  64  88 SE3       29.82S
WASECA         MOCLDY    66  61  82 S8        29.83S
ALBERT LEA     RAIN      66  66 100 S8        29.82S
$$
MNZ078>079-086>088-094>096-291300-
   Southeast Minnesota

CITY           SKY/WX    TMP DP  RH WIND       PRES   REMARKS
ROCHESTER      CLOUDY    68  66  93 S8        29.86S FOG
6HR MIN TEMP:  67; 6HR MAX TEMP:  68; 6HR PCP:  0.14;

RED WING       CLOUDY    68  66  94 SE7       29.83S
STANTON        CLOUDY    69  66  90 SE6       29.81R
DODGE CENTER   CLOUDY    66  66 100 S6        29.85R
WINONA         CLOUDY    63  63 100 SE8       29.86F
AUSTIN         CLOUDY    66  66 100 S7        29.84R
PRESTON        CLOUDY    66  67 100 CALM      29.87S FOG
$$
ABBREVIATIONS USED IN REMARKS
   TC - TEMPERATURES IN CELSIUS
  WCI - WIND CHILL INDEX
   HX - HEAT INDEX
  VSB - VISIBILITY
$$



USA.gov is the U.S. government's official web portal to all federal, state and local government web resources and services.